Location: Maccacari
(45.1333°N, 11.1333°E)
Time: 22:12:34
(UTC+00:00)

Tiros 1 despin weight - Pass Details

Date: 26 January 2021
Orbit: 593 x 642 km, 48.2° (Epoch: 08 March)

Event Time Altitude Azimuth Distance (km) Brightness Sun altitude
Rises 19:10:36 0° 286° (WNW) 2,848 ? -30.9°
Reaches altitude 10° 19:13:19 10° 270° (W) 1,935 ? -31.4°
Enters shadow 19:16:02 21° 234° (SW) 1,369 ? -31.9°
